Date,TemperatureHighF,TemperatureAvgF,TemperatureLowF,DewpointHighF,DewpointAvgF,DewpointLowF,HumidityHigh,HumidityAvg,HumidityLow,PressureMaxIn,PressureMinIn,WindSpeedMaxMPH,WindSpeedAvgMPH,GustSpeedMaxMPH,PrecipitationSumIn
2013-1-1,48.0,41.0,31.0,45.0,35.1,26.2,100,81,57,30.20,29.97,12,4,21,0.00
2013-1-2,46.0,32.8,24.0,32.4,28.0,24.0,100,85,54,30.24,30.14,9,2,10,0.00
2013-1-3,40.0,32.8,23.0,35.0,29.3,23.0,100,88,65,30.38,30.19,12,3,15,0.00
2013-1-4,34.0,32.0,30.0,34.0,28.8,16.7,100,89,55,30.38,30.24,7,1,7,0.35
2013-1-5,54.0,39.1,27.0,44.1,35.5,16.8,100,89,57,30.27,30.16,17,4,17,0.05
2013-1-6,54.0,42.8,26.0,51.0,31.6,25.0,100,69,41,30.39,29.94,11,2,12,0.00
2013-1-7,54.0,36.5,24.0,51.0,32.1,24.0,100,87,45,30.19,29.94,11,3,11,0.00
2013-1-8,48.0,41.8,31.0,44.8,35.6,20.1,100,81,34,30.21,29.88,16,5,16,0.08
2013-1-9,46.0,43.9,37.0,46.0,37.5,28.0,100,80,55,30.35,29.86,12,4,13,0.62
2013-1-10,61.0,49.0,33.0,56.0,44.1,29.5,100,84,61,30.35,29.87,19,6,19,0.37
2013-1-11,72.0,60.7,50.0,60.7,53.3,37.0,100,79,45,30.20,29.78,19,3,19,1.70
2013-1-12,57.0,49.2,31.0,57.0,40.8,27.0,100,75,47,29.93,29.77,16,5,16,0.00
2013-1-13,41.0,30.7,22.0,28.4,24.7,20.1,100,79,56,30.16,29.93,11,5,16,0.00
2013-1-14,43.0,29.8,20.0,27.0,21.5,16.0,92,73,47,30.17,30.04,16,6,16,0.00
2013-1-15,40.0,30.9,20.0,24.2,21.5,18.0,100,70,44,30.15,30.03,13,4,16,0.00
2013-1-16,53.0,30.0,17.0,31.8,24.1,17.0,100,83,36,30.23,30.13,13,3,17,0.00
2013-1-17,59.0,46.7,31.0,38.3,32.4,29.3,100,61,36,30.48,30.33,15,3,15,0.00
2013-1-18,66.0,44.6,23.0,39.5,31.6,23.0,100,67,29,30.41,30.17,12,2,16,0.00
2013-1-19,70.0,50.7,30.0,40.8,33.7,28.2,100,58,22,30.22,30.09,16,4,20,0.00
2013-1-20,70.0,46.8,29.0,39.6,29.5,20.2,100,59,16,30.24,30.05,9,3,20,0.00
2013-1-21,55.0,41.0,29.0,40.1,32.8,26.6,100,75,49,30.25,30.05,13,3,20,0.00
2013-1-22,70.0,48.4,29.0,57.6,42.3,28.3,100,82,50,30.25,30.13,12,2,20,0.00
2013-1-23,77.0,57.3,39.0,66.0,40.6,-35.3,100,63,2,30.29,30.13,13,4,20,0.00
2013-1-24,82.0,64.5,51.0,66.7,53.1,43.2,100,73,28,30.25,30.09,16,6,19,0.00
2013-1-25,71.0,58.9,45.0,61.9,49.6,37.4,100,74,44,30.18,30.05,13,5,15,0.00
2013-1-26,70.0,52.0,37.0,64.7,49.3,37.0,100,91,76,30.14,30.01,15,3,15,0.00
2013-1-27,79.0,64.4,56.0,66.3,59.6,55.5,100,87,53,30.05,29.95,13,4,16,0.00
2013-1-28,79.0,68.2,57.0,71.5,64.3,57.0,100,89,61,30.02,29.81,17,5,21,0.00
2013-1-29,67.0,60.0,48.0,67.0,41.9,12.8,100,60,23,29.83,29.68,28,10,35,0.01
2013-1-30,52.0,42.2,32.0,28.1,15.4,4.1,71,37,17,30.14,29.82,18,6,19,0.01
2013-1-31,67.0,47.0,27.0,25.1,16.8,8.4,57,32,15,30.23,30.04,14,4,19,0.00
2013-2-1,70.0,51.0,35.0,42.1,29.1,17.2,77,45,24,30.27,30.07,15,3,16,0.00
2013-2-2,64.0,52.7,40.0,52.1,39.3,26.0,100,66,30,30.28,30.08,15,5,15,0.00
2013-2-3,69.0,49.0,30.0,54.2,39.8,26.3,95,72,45,30.28,29.93,9,2,18,1.00
2013-2-4,74.0,65.0,47.0,55.1,41.2,28.8,97,47,24,29.95,29.88,17,7,20,0.00
2013-2-5,76.0,62.9,53.0,47.7,39.8,32.2,55,43,30,30.06,29.94,8,2,10,0.00
2013-2-6,77.0,66.7,56.0,62.8,53.9,43.3,100,66,41,30.00,29.85,12,4,13,1.94
2013-2-7,67.0,57.6,49.0,60.0,48.8,39.0,100,75,36,30.15,29.88,13,6,17,1.94
2013-2-8,63.0,47.2,32.0,41.4,30.9,23.8,100,59,23,30.19,30.00,16,4,16,27.02
2013-2-9,70.0,63.6,48.0,64.0,58.6,26.9,100,85,42,30.01,29.69,18,6,23,0.21
2013-2-10,65.0,55.0,41.0,61.0,20.8,7.1,100,31,10,29.97,29.76,14,5,23,0.21
2013-2-11,62.0,50.7,40.0,46.5,37.9,22.2,96,63,43,30.07,29.92,15,6,22,4.40
2013-2-12,62.0,48.6,33.0,55.0,37.1,23.0,100,71,23,30.05,29.83,19,7,28,0.01
2013-2-13,63.0,41.9,25.0,38.5,25.6,11.5,100,64,14,30.13,29.95,13,3,28,5.04
2013-2-14,71.0,46.2,23.0,31.2,20.2,4.1,99,47,9,30.08,29.92,12,2,28,5.04
2013-2-15,52.0,44.8,38.0,39.4,34.4,13.9,94,69,26,30.31,29.98,15,8,20,3.36
2013-2-16,55.0,51.8,49.0,19.9,18.4,15.8,31,27,21,30.13,30.13,7,4,13,0.63
2013-2-17,72.0,63.4,50.0,49.9,31.8,14.7,80,36,11,30.10,29.84,13,6,21,2.73
2013-2-18,67.0,53.1,42.0,52.2,24.4,13.0,87,38,13,30.07,29.82,10,4,21,1.89
2013-2-19,59.0,49.7,37.0,32.7,26.8,21.3,69,43,23,30.23,30.02,15,5,20,4.62
2013-2-20,54.0,48.6,46.0,50.7,32.4,-30.0,100,62,3,30.03,29.57,19,7,21,0.04
2013-2-21,64.0,52.5,37.0,42.0,23.7,-16.9,90,38,7,29.84,29.52,25,8,31,0.01
2013-2-22,54.0,36.8,27.0,40.3,29.5,13.1,95,76,47,30.04,29.84,10,5,14,0.01
2013-2-23,54.0,42.8,33.0,35.6,21.1,9.4,91,48,18,30.03,29.78,7,1,14,2.73
2013-2-24,76.0,67.3,55.0,58.1,50.6,44.7,90,57,33,29.82,29.55,16,7,20,2.34
2013-2-25,43.0,40.3,35.0,36.9,32.8,29.2,83,74,66,29.87,29.66,32,12,38,0.05
2013-2-26,55.0,43.3,26.0,29.9,24.7,16.9,93,56,22,29.93,29.77,9,4,16,2.88
2013-3-1,45.0,41.3,38.0,24.6,22.9,22.0,52,48,42,30.21,30.19,1,0,16,0.48
2013-3-3,80.0,71.4,64.0,14.6,11.9,9.4,14,10,8,29.97,29.83,15,7,22,3.84
2013-3-4,83.0,80.3,57.0,26.7,-7.5,-28.3,31,4,1,29.83,29.78,20,11,25,0.48
2013-3-5,59.0,50.0,35.0,19.9,9.9,4.1,30,20,12,30.39,30.28,17,5,19,0.00
2013-3-6,68.0,45.9,23.0,14.8,9.3,2.5,58,27,9,30.37,30.09,12,3,19,0.00
2013-3-7,75.0,56.5,39.0,53.2,32.3,7.8,90,42,22,30.15,30.01,14,4,19,0.00
2013-3-8,71.0,63.6,51.0,68.2,50.7,-40.4,98,70,1,30.08,29.89,15,5,22,0.00
2013-3-9,80.0,68.1,59.0,69.9,50.1,24.0,99,57,24,29.89,29.70,18,7,23,0.00
2013-3-10,61.0,51.5,40.0,32.0,21.4,8.7,53,32,17,30.08,29.82,20,8,27,0.00
2013-3-11,72.0,48.7,25.0,23.0,15.0,7.5,55,28,13,30.15,29.95,12,3,27,0.00
2013-3-12,51.0,49.9,48.0,20.7,20.4,19.8,33,31,30,29.97,29.97,5,3,27,0.00
2013-3-13,59.0,58.1,57.0,29.6,28.4,26.8,35,32,29,30.25,30.25,6,3,11,0.00
2013-3-14,81.0,64.4,50.0,54.6,42.4,29.6,88,49,22,30.34,30.17,16,5,21,0.00
2013-3-15,86.0,68.2,51.0,60.4,47.3,39.6,98,53,21,30.17,29.93,14,6,21,0.00
2013-3-16,92.0,73.3,57.0,57.7,44.3,29.3,92,43,11,29.93,29.72,16,7,21,0.00
2013-3-17,81.0,65.0,48.0,53.8,46.3,37.2,96,55,24,29.89,29.70,14,4,21,0.00
2013-3-18,76.0,61.6,50.0,45.2,38.9,25.6,71,45,29,29.99,29.71,13,4,21,0.00
2013-3-19,86.0,61.8,40.0,53.5,41.8,23.1,97,60,11,30.09,29.87,21,5,29,0.00
2013-3-20,70.0,59.0,48.0,52.2,36.7,31.2,79,46,25,30.31,29.97,16,6,29,0.00
2013-3-21,85.0,66.2,47.0,63.1,51.9,30.9,96,63,35,29.96,29.60,21,6,24,0.00
2013-3-22,70.0,59.8,47.0,65.0,52.4,-14.0,100,80,5,29.84,29.64,15,6,24,0.00
2013-3-23,83.0,61.7,46.0,59.8,35.9,-4.7,100,61,5,29.88,29.68,23,7,29,0.00
2013-3-24,58.0,43.9,31.0,49.0,22.1,9.0,98,47,15,30.19,29.88,15,7,29,0.00
2013-3-25,56.0,41.9,27.0,17.8,11.1,5.1,61,31,13,30.33,30.07,13,5,29,0.00
2013-3-26,68.0,47.2,23.0,21.6,13.6,4.8,64,32,10,30.40,30.16,15,3,29,0.00
2013-3-27,78.0,57.5,36.0,52.5,36.8,13.6,85,47,23,30.20,30.07,15,4,29,0.00
2013-3-28,84.0,64.5,44.0,65.0,57.0,34.7,100,80,49,30.16,30.02,15,4,29,0.00
2013-3-29,80.0,67.5,57.0,70.0,63.8,45.8,100,89,66,30.16,30.03,16,5,29,0.00
2013-3-30,90.0,71.7,58.0,73.5,62.5,49.2,100,76,39,30.10,29.91,15,5,29,0.00
2013-3-31,79.0,70.2,63.0,70.0,62.5,52.3,100,79,48,30.05,29.91,17,6,23,0.00
2013-4-1,88.0,69.8,50.0,72.8,58.5,50.0,100,72,33,30.12,29.92,12,4,15,0.00
2013-4-2,73.0,58.9,42.0,72.0,52.1,-32.8,100,85,3,30.00,29.86,19,6,20,0.22
2013-4-3,47.0,42.8,40.0,47.0,42.0,31.5,100,97,66,30.13,29.91,14,6,16,0.22
2013-4-4,71.0,50.9,39.0,54.7,44.9,39.0,100,85,37,30.23,30.09,15,5,16,0.00
2013-4-5,81.0,58.4,36.0,60.4,43.2,-14.5,100,64,10,30.22,29.99,12,3,20,0.00
2013-4-6,89.0,70.1,55.0,64.3,53.3,44.2,100,60,25,29.99,29.84,14,6,23,0.00
2013-4-7,93.0,70.0,54.0,73.4,60.4,36.2,100,77,19,29.92,29.74,15,4,23,0.00
2013-4-8,91.0,74.7,63.0,75.5,65.8,50.8,100,80,31,29.80,29.62,19,5,23,0.00
2013-4-9,94.0,74.7,48.0,74.5,55.8,34.5,100,65,13,29.74,29.60,18,6,29,0.00
2013-4-10,60.0,46.5,35.0,47.6,41.3,35.0,100,84,52,29.99,29.74,15,7,29,0.17
2013-4-11,75.0,53.3,33.0,46.5,37.1,22.7,100,63,15,29.95,29.81,10,3,29,0.00
2013-4-12,86.0,62.5,37.0,54.0,42.8,36.0,100,59,20,30.00,29.80,12,3,29,0.00
2013-4-13,83.0,68.4,52.0,55.8,43.6,36.3,72,43,25,29.96,29.78,14,4,29,0.00
2013-4-14,92.0,73.5,56.0,68.6,42.5,12.8,100,51,6,29.79,29.65,25,6,29,0.00
2013-4-15,95.0,79.0,58.0,72.2,46.0,28.5,95,39,11,29.85,29.64,16,5,29,0.00
2013-4-16,97.0,80.2,66.0,78.1,69.3,49.7,100,74,39,29.95,29.77,14,4,29,0.00
2013-4-17,97.0,81.2,70.0,81.3,72.8,57.9,100,81,31,29.87,29.64,16,6,29,0.00
2013-4-18,74.0,55.4,43.0,74.0,42.8,24.0,100,69,24,30.11,29.67,27,8,36,0.37
2013-4-19,70.0,50.7,29.0,41.5,27.4,16.3,100,51,14,30.34,30.09,9,2,36,7.68
2013-4-20,79.0,61.0,39.0,35.7,30.1,23.6,81,36,16,30.14,29.91,17,5,36,7.68
2013-4-21,83.0,64.1,44.0,61.1,50.3,33.6,100,65,34,30.13,29.93,11,4,36,7.68
2013-4-22,90.0,71.1,54.0,70.6,61.3,54.0,100,77,34,30.07,29.85,14,5,36,7.68
2013-4-23,72.0,54.7,43.0,68.0,49.5,36.3,100,83,72,30.17,29.79,12,6,36,2.88
2013-4-24,64.0,49.3,34.0,36.9,33.2,28.6,89,58,31,30.29,30.16,13,6,36,0.00
2013-4-25,71.0,61.3,53.0,56.9,46.1,35.7,77,58,48,30.30,30.09,14,6,36,0.00
2013-4-26,90.0,71.9,60.0,71.9,60.7,47.4,100,74,26,30.15,30.01,14,5,36,0.00
2013-4-28,92.0,78.0,67.0,56.4,48.8,45.2,65,38,22,29.98,29.89,16,4,17,0.00
2013-4-29,91.0,73.5,53.0,65.4,56.4,49.7,100,60,27,30.00,29.82,12,3,20,0.00
2013-4-30,95.0,77.1,63.0,74.4,63.7,51.8,100,71,29,29.87,29.75,11,5,20,0.00
2013-5-1,95.0,78.0,66.0,77.5,68.3,61.6,100,77,37,30.03,29.76,15,6,31,0.14
2013-5-2,66.0,46.7,40.0,66.0,43.5,35.3,100,89,64,30.38,30.02,19,8,31,0.14
2013-5-3,70.0,50.7,33.0,36.2,27.2,14.6,100,52,13,30.38,30.01,10,3,31,0.00
2013-5-4,83.0,61.8,38.0,30.5,23.7,17.0,56,27,10,30.10,29.92,12,2,31,0.00
2013-5-5,78.0,61.3,46.0,43.8,35.8,24.2,64,40,22,30.23,30.01,10,3,31,0.00
2013-5-6,65.0,57.3,50.0,64.1,54.1,41.0,100,90,57,30.16,30.02,12,4,31,0.08
2013-5-7,87.0,67.4,45.0,64.5,53.8,42.4,100,69,35,30.13,29.95,15,4,31,0.08
2013-5-8,84.0,75.3,66.0,76.1,71.9,66.0,100,90,71,30.03,29.90,13,5,18,0.00
2013-5-9,80.0,68.0,59.0,80.0,67.2,42.2,100,97,50,30.04,29.89,17,4,25,0.41
2013-5-10,79.0,63.4,56.0,72.0,62.1,47.8,100,96,64,30.14,29.92,19,4,25,0.22
2013-5-11,78.0,64.5,51.0,67.0,53.1,16.0,100,70,22,30.26,30.08,16,4,25,0.23
2013-5-12,81.0,64.9,50.0,65.5,56.2,50.0,100,78,42,30.35,30.17,10,3,19,15.60
2013-5-13,89.0,70.2,49.0,61.0,48.2,33.0,100,57,15,30.35,30.18,10,3,19,15.60
2013-5-14,89.0,73.2,61.0,69.3,61.7,49.9,100,70,46,30.23,30.03,14,4,25,0.26
2013-5-15,93.0,73.1,59.0,78.0,50.5,-28.7,100,54,2,30.10,29.80,13,4,25,0.40
2013-5-16,103.0,80.8,64.0,79.4,65.7,46.6,100,69,16,29.92,29.78,10,4,25,19.95
2013-5-17,107.0,85.8,64.0,76.8,58.5,34.8,100,55,9,29.98,29.81,13,3,25,0.00
2013-5-18,99.0,86.0,73.0,81.7,72.5,59.5,100,67,35,29.96,29.80,15,5,25,0.00
2013-5-19,99.0,83.7,69.0,75.8,51.3,15.0,100,51,5,29.90,29.75,15,5,25,0.00
2013-5-20,101.0,84.1,70.0,81.7,56.8,10.0,100,58,4,29.89,29.74,15,4,25,0.00
2013-5-21,91.0,77.4,65.0,81.4,63.6,40.8,100,68,18,29.91,29.75,20,5,27,0.00
2013-5-22,97.0,76.4,51.0,63.4,53.7,48.0,100,54,19,30.03,29.87,13,3,27,0.00
2013-5-23,97.0,81.3,63.0,81.8,73.1,62.4,100,79,47,30.17,29.92,19,6,32,0.39
2013-5-24,79.0,73.3,63.0,76.5,71.8,60.3,100,95,85,30.18,30.08,13,5,32,15.00
2013-5-25,85.0,74.0,65.0,81.1,71.9,60.4,100,94,75,30.17,30.02,12,5,20,24.00
2013-5-26,91.0,77.5,63.0,78.5,72.3,53.6,100,86,61,30.13,29.88,14,4,21,0.33
2013-5-27,89.0,78.5,71.0,82.2,76.4,71.0,100,94,75,30.02,29.86,17,5,22,14.63
2013-5-28,82.0,74.3,69.0,79.4,74.1,69.0,100,99,87,29.91,29.71,16,6,24,0.03
2013-5-29,91.0,81.7,72.0,80.0,76.0,72.0,100,84,62,29.82,29.70,13,6,24,0.03
2013-5-30,97.0,82.8,72.0,82.1,73.5,64.8,100,78,36,29.89,29.76,15,5,24,0.00
2013-5-31,99.0,84.1,72.0,84.4,77.1,72.0,100,82,50,29.95,29.79,15,6,24,0.00
2013-6-1,91.0,81.2,74.0,84.4,75.3,63.4,100,84,64,30.05,29.79,13,6,24,0.00
2013-6-2,89.0,76.7,65.0,68.9,63.3,58.0,96,66,42,30.18,29.97,19,5,24,0.00
2013-6-3,97.0,81.1,66.0,78.3,69.5,60.9,96,70,44,30.07,29.91,16,4,24,0.00
2013-6-4,104.0,87.1,72.0,77.6,71.0,61.9,98,63,33,29.97,29.85,15,5,24,0.00
2013-6-5,102.0,82.1,65.0,76.1,68.2,55.2,100,69,28,29.98,29.80,17,4,36,0.50
2013-6-6,86.0,74.0,63.0,77.3,70.2,63.0,100,89,65,30.04,29.84,17,5,36,0.50
2013-6-7,82.0,71.3,65.0,74.7,66.4,59.5,100,87,49,30.09,29.95,14,5,36,0.07
2013-6-8,91.0,76.1,60.0,74.2,68.0,60.0,100,79,54,29.99,29.84,12,3,36,8.40
2013-6-9,89.0,77.0,64.0,81.1,71.4,55.6,100,85,54,30.05,29.86,15,4,36,0.44
2013-6-10,96.0,80.3,66.0,83.4,66.9,47.3,100,71,21,30.13,29.99,12,3,36,18.96
2013-6-11,98.0,82.6,69.0,82.1,71.3,64.0,100,73,39,30.14,30.00,12,4,36,18.96
2013-6-12,94.0,81.3,70.0,80.0,72.5,67.9,100,77,51,30.15,30.02,13,4,36,18.96
2013-6-13,94.0,80.1,71.0,82.1,74.2,69.2,100,85,49,30.17,29.99,17,4,36,0.01
2013-6-14,84.0,74.2,66.0,80.4,73.8,66.0,100,99,86,30.09,30.01,13,4,36,0.08
2013-6-15,84.0,74.2,66.0,82.4,73.8,66.0,100,99,87,30.09,29.99,12,3,36,0.19
2013-6-16,98.0,81.3,67.0,85.7,75.2,67.0,100,84,51,30.13,29.98,10,2,36,26.40
2013-6-17,100.0,83.5,66.0,84.7,75.0,58.6,100,79,45,30.11,29.96,19,4,36,0.28
2013-6-18,90.0,75.2,64.0,79.0,70.2,53.4,100,86,57,30.14,29.98,13,3,36,0.81
2013-6-19,96.0,81.0,69.0,83.1,72.8,68.1,100,80,43,30.09,29.96,16,4,36,45.84
2013-6-20,95.0,83.3,73.0,78.7,73.1,70.0,100,74,47,30.13,29.95,16,4,36,45.84
2013-6-21,95.0,83.1,73.0,79.1,72.3,64.7,100,73,46,30.15,30.02,16,4,36,45.84
2013-6-22,97.0,83.5,72.0,79.4,68.8,59.8,100,66,35,30.11,29.97,15,5,36,45.84
2013-6-23,97.0,83.8,72.0,75.6,68.9,62.1,92,63,36,30.04,29.95,13,5,36,45.84
2013-6-24,95.0,82.4,71.0,78.7,72.1,66.5,100,74,46,30.10,29.96,14,5,36,45.84
2013-6-25,102.0,86.5,75.0,80.1,74.0,67.3,100,70,39,30.06,29.94,15,5,36,45.84
2013-6-26,105.0,88.0,75.0,80.7,73.0,66.3,100,65,34,30.06,29.94,13,5,36,45.84
2013-6-27,104.0,87.9,75.0,77.8,65.7,49.7,100,56,21,30.15,29.97,12,3,36,45.84
2013-6-28,104.0,86.3,67.0,73.8,62.0,51.7,84,47,26,30.15,29.98,10,2,36,45.84
2013-6-29,87.0,79.2,73.0,73.7,64.8,59.2,91,64,40,30.03,29.95,8,2,36,21.01
2013-6-30,94.0,80.4,68.0,78.1,70.0,60.1,100,74,44,30.11,29.95,14,4,26,0.01
2013-7-1,85.0,73.7,67.0,73.0,65.5,52.5,100,78,47,30.20,30.00,9,3,26,0.01
2013-7-2,88.0,73.8,57.0,63.0,53.2,42.1,100,54,24,30.25,30.08,9,2,26,50.16
2013-7-3,92.0,76.3,55.0,55.8,46.4,38.4,84,40,16,30.19,29.99,10,3,26,50.16
2013-7-4,94.0,76.9,59.0,65.4,52.9,42.3,74,46,24,30.08,29.95,10,2,26,50.16
2013-7-5,99.0,83.9,64.0,62.8,54.6,46.1,83,40,21,30.09,29.93,12,4,26,50.16
2013-7-6,98.0,84.4,70.0,65.7,57.6,49.2,78,43,23,30.06,29.94,13,4,26,31.35
2013-7-7,97.0,83.5,67.0,73.1,63.1,54.7,97,54,30,30.11,29.94,13,3,16,0.00
2013-7-8,96.0,82.5,71.0,85.0,72.2,58.0,100,73,44,30.21,30.03,12,3,23,0.14
2013-7-9,97.0,83.4,67.0,80.0,69.5,62.7,100,67,38,30.25,30.09,12,3,17,0.00
2013-7-10,101.0,85.8,70.0,80.3,69.4,59.8,100,63,33,30.22,30.03,12,3,15,0.00
2013-7-11,98.0,86.2,74.0,75.8,67.0,60.1,96,56,36,30.15,29.98,10,3,13,0.00
2013-7-12,100.0,86.7,74.0,75.2,62.4,46.1,83,48,21,30.12,29.99,13,3,15,0.00
2013-7-13,102.0,86.0,68.0,69.1,57.0,49.0,69,41,21,30.15,29.98,12,2,15,0.00
2013-7-14,103.0,82.9,68.0,70.0,59.2,50.9,100,49,22,30.05,29.91,23,5,23,0.00
2013-7-15,69.0,65.1,62.0,69.0,58.2,24.6,100,82,23,30.08,29.96,17,5,19,0.18
2013-7-16,79.0,68.6,65.0,79.0,32.3,-37.4,100,41,1,30.18,30.06,9,2,13,1.42
2013-7-17,81.0,73.7,69.0,81.0,68.4,9.4,100,87,9,30.28,30.19,14,5,18,0.40
2013-7-18,84.0,72.4,67.0,83.0,47.9,-35.5,100,60,1,30.29,30.11,12,3,25,0.41
2013-7-19,91.0,77.0,65.0,84.7,53.5,0.0,100,57,18,30.20,30.03,10,2,25,0.01
2013-7-20,93.0,79.7,68.0,83.0,73.2,59.0,100,82,55,30.12,29.96,12,2,25,0.00
2013-7-21,94.0,79.9,69.0,85.0,76.3,69.0,100,90,56,30.09,29.95,10,3,25,0.06
2013-7-22,96.0,82.5,72.0,87.0,78.4,72.0,100,89,63,30.10,29.98,11,3,25,0.00
2013-7-23,99.0,84.4,72.0,88.4,78.3,69.1,100,84,55,30.10,29.97,11,3,25,0.00
2013-7-24,97.0,84.0,70.0,85.1,75.6,67.7,100,78,51,30.13,29.96,12,3,25,0.00
2013-7-25,96.0,83.5,70.0,84.4,76.7,70.0,100,83,50,30.19,30.03,12,4,25,0.00
2013-7-26,100.0,84.2,77.0,82.4,75.9,67.0,100,78,53,30.15,30.04,12,4,25,0.00
2013-7-27,89.0,77.7,66.0,79.8,70.0,62.0,100,80,42,30.17,30.01,13,4,25,0.00
2013-7-28,95.0,79.7,61.0,80.1,72.1,57.1,100,80,52,30.08,29.95,12,3,25,0.00
2013-7-29,99.0,85.5,75.0,86.1,75.7,63.1,100,77,44,30.11,29.97,13,4,25,0.00
2013-7-30,102.0,86.5,76.0,83.7,74.7,67.7,100,71,43,30.18,30.04,12,3,25,0.00
2013-7-31,100.0,86.5,75.0,81.1,72.6,66.2,100,66,43,30.23,30.08,13,3,25,0.00
2013-8-1,103.0,85.1,71.0,76.0,69.4,64.2,100,64,33,30.19,30.03,10,2,25,0.00
2013-8-2,104.0,88.0,72.0,72.1,67.1,60.0,92,54,29,30.12,29.99,12,3,25,0.00
2013-8-3,102.0,87.1,75.0,71.9,65.4,58.4,81,51,30,30.13,30.00,11,4,25,0.00
2013-8-4,98.0,85.9,72.0,79.1,70.0,59.6,100,62,38,30.19,30.03,10,4,25,0.00
2013-8-5,102.0,87.8,75.0,75.2,68.4,58.9,95,56,32,30.15,29.97,10,4,25,0.00
2013-8-6,106.0,88.1,73.0,77.4,69.4,58.9,100,58,29,30.06,29.93,12,3,25,0.00
2013-8-7,107.0,87.6,74.0,78.0,68.4,62.2,100,57,27,30.05,29.91,16,5,39,0.01
2013-8-8,105.0,83.2,69.0,83.4,70.3,49.1,100,72,29,30.03,29.90,12,3,39,0.03
2013-8-9,102.0,83.9,67.0,83.0,71.1,61.9,100,72,33,30.11,29.92,11,3,39,0.03
2013-8-10,83.0,81.0,79.0,77.8,77.2,76.3,93,88,82,30.11,30.10,10,6,39,0.00
2013-8-12,95.0,89.4,82.0,73.5,68.9,66.3,60,51,46,30.13,30.06,12,4,15,0.00
2013-8-13,100.0,86.2,75.0,78.0,69.5,63.4,100,61,34,30.19,30.02,11,4,15,0.00
2013-8-14,86.0,79.0,73.0,77.4,71.0,63.4,100,78,56,30.17,30.02,13,4,18,0.00
2013-8-15,95.0,79.6,68.0,79.0,72.7,68.0,100,82,46,30.17,30.04,15,3,21,0.00
2013-8-16,95.0,76.3,63.0,74.1,64.8,56.0,100,75,28,30.21,30.00,15,4,24,0.00
2013-8-17,94.0,78.4,62.0,76.1,65.7,58.5,100,71,34,30.21,30.07,13,4,24,0.00
2013-8-18,95.0,80.0,64.0,70.2,64.2,58.4,100,62,38,30.19,30.05,15,4,24,0.00
2013-8-19,97.0,82.1,66.0,68.5,63.7,59.2,91,57,36,30.18,30.03,12,4,24,0.00
2013-8-20,96.0,82.3,68.0,70.1,63.0,54.9,83,54,37,30.17,30.02,14,4,24,0.00
2013-8-21,95.0,79.9,63.0,75.8,64.8,54.4,100,65,30,30.21,30.06,10,3,24,0.00
2013-8-22,98.0,83.8,68.0,76.9,70.0,63.7,100,67,36,30.22,30.05,9,3,24,0.00
2013-8-23,97.0,77.5,67.0,75.7,70.7,63.5,100,82,46,30.19,30.01,12,2,40,0.55
2013-8-24,95.0,79.9,66.0,82.8,69.5,50.3,100,74,44,30.23,30.05,14,2,40,0.55
2013-8-25,93.0,82.1,69.0,81.1,72.5,65.7,100,76,46,30.27,30.12,13,4,40,0.00
2013-8-26,90.0,78.6,68.0,80.4,72.3,68.0,100,83,56,30.26,30.11,13,4,40,0.00
2013-8-27,86.0,76.2,67.0,81.4,73.6,67.0,100,92,70,30.20,30.09,13,3,40,0.00
2013-8-28,96.0,79.6,66.0,80.4,68.4,59.1,100,74,33,30.23,30.09,13,3,40,0.00
2013-8-29,98.0,80.6,64.0,78.5,67.6,62.5,100,70,36,30.24,30.10,12,3,40,0.00
2013-8-30,100.0,82.6,64.0,72.7,65.3,60.4,100,61,32,30.19,30.01,9,2,40,0.00
2013-8-31,103.0,84.9,66.0,69.6,65.1,61.0,100,56,30,31.16,29.98,12,3,40,0.00
2013-9-1,101.0,85.1,67.0,72.2,67.4,63.0,100,59,32,31.24,30.46,10,2,40,0.00
2013-9-2,94.0,81.2,71.0,78.0,70.2,64.7,100,72,41,31.32,30.92,12,4,40,0.04
2013-9-3,97.0,80.6,65.0,77.2,69.8,64.7,100,74,42,31.33,30.97,11,2,40,0.00
2013-9-4,98.0,82.2,68.0,70.4,63.9,51.9,100,60,25,31.99,30.12,14,2,40,0.00
2013-9-5,96.0,82.0,69.0,73.4,66.9,57.8,92,62,39,31.97,30.16,10,3,40,0.05
2013-9-6,96.0,82.7,69.0,78.1,69.1,61.6,100,68,35,31.99,30.11,12,3,40,0.05
2013-9-7,95.0,78.6,71.0,70.5,65.5,62.2,83,67,35,31.96,30.63,10,2,40,0.96
2013-9-8,92.0,85.1,77.0,80.1,70.6,65.8,97,63,49,31.82,30.58,13,5,40,0.96
2013-9-9,90.0,82.4,71.0,79.0,71.9,65.2,100,72,51,31.97,30.63,13,6,40,0.00
2013-9-10,83.0,83.0,83.0,70.5,70.5,70.5,66,66,66,0.00,40.00,4,4,40,0.00
2013-9-11,83.0,83.0,83.0,70.5,70.5,70.5,66,66,66,0.00,40.00,4,4,40,0.00
2013-9-12,90.0,84.3,77.0,80.7,69.1,61.5,100,62,47,31.98,30.28,12,4,13,0.02
2013-9-13,94.0,83.0,77.0,76.0,65.2,60.4,86,56,40,31.99,31.83,16,3,18,0.02
2013-9-14,79.0,79.0,79.0,62.5,62.5,62.5,57,57,57,0.00,40.00,0,0,18,0.00
2013-9-15,79.0,79.0,79.0,62.5,62.5,62.5,57,57,57,0.00,40.00,0,0,18,0.00
2013-9-16,82.0,79.0,79.0,62.5,62.5,62.1,57,57,51,0.00,40.00,1,0,18,0.00
2013-9-17,82.0,82.0,82.0,62.1,62.1,62.1,51,51,51,0.00,40.00,1,1,10,0.00
2013-9-18,91.0,83.3,82.0,66.1,62.7,62.1,51,50,44,0.00,40.00,5,2,10,0.00
2013-9-19,91.0,91.0,91.0,66.1,66.1,66.1,44,44,44,0.00,40.00,5,5,9,0.00
2013-9-20,91.0,91.0,91.0,66.1,66.1,66.1,44,44,44,0.00,40.00,5,5,9,0.00
2013-9-21,91.0,91.0,91.0,66.1,66.1,66.1,44,44,44,0.00,40.00,5,5,9,0.00
2013-9-22,91.0,91.0,91.0,66.1,66.1,66.1,44,44,44,0.00,40.00,5,5,9,0.00
2013-9-24,88.0,86.0,82.0,69.4,67.2,62.1,56,54,50,0.00,40.00,9,4,9,2.54
2013-9-25,93.0,85.9,69.0,75.2,66.8,61.0,81,54,38,31.97,31.02,12,3,12,0.06
2013-9-26,69.0,68.0,68.0,62.6,61.6,61.6,80,80,80,0.00,40.00,0,0,0,0.06
2013-9-27,87.0,77.3,68.0,84.1,72.2,61.6,100,84,80,31.98,31.70,13,3,13,2.50
2013-9-28,76.0,76.0,76.0,70.1,70.1,70.1,82,82,82,0.00,40.00,4,4,4,2.50
2013-9-29,76.0,76.0,76.0,70.1,70.1,70.1,82,82,82,0.00,40.00,4,4,4,2.50
2013-9-30,77.0,76.5,76.0,71.1,70.6,70.1,82,82,82,0.00,40.00,5,4,8,2.50
2013-10-1,77.0,77.0,77.0,71.1,71.1,71.1,82,82,82,0.00,40.00,5,5,8,2.50
2013-10-2,77.0,77.0,77.0,71.1,71.1,71.1,82,82,82,0.00,40.00,5,5,8,2.50
2013-10-3,77.0,77.0,77.0,71.1,71.1,71.1,82,82,82,0.00,40.00,5,5,8,2.50
2013-10-4,77.0,77.0,77.0,71.1,71.1,71.1,82,82,82,0.00,40.00,5,5,8,2.50
2013-10-5,77.0,77.0,77.0,71.1,71.1,71.1,82,82,82,0.00,40.00,5,5,8,2.50
2013-10-6,78.0,71.9,57.0,71.1,53.2,36.0,86,55,25,31.99,31.51,10,4,11,0.04
2013-10-7,57.0,57.0,57.0,45.8,45.8,45.8,66,66,66,0.00,40.00,0,0,0,0.04
2013-10-8,57.0,57.0,57.0,45.8,45.8,45.8,66,66,66,0.00,40.00,0,0,0,0.04
2013-10-9,85.0,66.5,57.0,69.6,53.9,45.8,66,64,60,0.00,40.00,3,0,3,2.52
2013-10-10,85.0,85.0,85.0,69.6,69.6,69.6,60,60,60,0.00,40.00,1,1,1,2.52
2013-10-11,85.0,85.0,85.0,69.6,69.6,69.6,60,60,60,0.00,40.00,1,1,1,2.52
2013-10-12,88.0,85.7,82.0,82.7,74.4,69.6,87,70,60,28.87,28.87,7,3,8,0.01
2013-10-13,87.0,87.0,87.0,79.7,79.7,79.7,79,79,79,0.00,40.00,7,7,7,0.01
2013-10-14,87.0,87.0,87.0,79.7,79.7,79.7,79,79,79,0.00,40.00,7,7,7,0.01
2013-10-15,58.0,49.7,48.0,58.0,47.1,37.6,100,91,67,30.09,30.01,12,5,15,0.31
2013-10-16,63.0,54.2,48.0,62.7,54.0,43.7,100,99,85,30.16,30.05,14,4,16,0.32
2013-10-17,73.0,56.4,40.0,66.0,48.9,-15.1,100,81,8,30.17,29.98,10,2,16,0.00
2013-10-18,75.0,60.1,46.0,75.0,59.7,45.6,100,99,68,30.15,29.92,22,4,29,0.11
2013-10-19,65.0,48.9,36.0,52.2,43.6,36.0,100,86,44,30.26,30.03,9,2,29,0.11
2013-10-20,78.0,57.4,38.0,69.8,52.9,-41.2,100,88,2,30.04,29.90,12,3,29,0.00
2013-10-21,69.0,58.6,48.0,67.1,53.4,0.0,100,88,12,30.14,29.88,13,3,29,0.00
2013-10-22,75.0,55.1,40.0,59.4,46.5,31.6,100,77,39,30.28,30.13,7,1,29,0.00
2013-10-23,80.0,59.0,42.0,59.7,48.0,42.0,100,74,30,30.24,30.09,11,3,29,0.00
2013-10-24,79.0,57.3,39.0,61.8,50.1,25.3,100,81,44,30.29,30.07,10,2,29,0.00
2013-10-25,77.0,58.9,44.0,68.7,54.9,39.2,100,89,48,30.35,30.19,10,2,29,0.00
2013-10-26,78.0,66.7,57.0,75.5,65.9,57.0,100,98,85,30.22,30.12,13,4,29,0.00
2013-10-27,73.0,60.7,50.0,68.8,60.1,50.0,100,98,84,30.20,30.01,12,2,29,0.00
2013-10-28,82.0,67.9,55.0,79.1,49.7,0.0,100,66,20,30.08,29.98,13,3,29,0.00
2013-10-29,71.0,68.9,67.0,71.0,68.9,67.0,100,100,100,30.05,30.01,8,3,29,0.00
2013-10-30,72.0,69.6,68.0,72.0,69.6,68.0,100,100,100,29.99,29.83,12,4,17,0.02
2013-10-31,73.0,63.8,47.0,69.0,50.3,34.3,100,68,25,30.02,29.84,23,6,23,0.02
2013-11-1,74.0,55.8,41.0,49.2,43.6,38.9,100,71,28,30.15,29.82,14,3,23,0.00
2013-11-2,71.0,53.9,38.0,51.0,39.8,31.8,100,66,25,30.38,30.16,10,2,23,0.00
2013-11-3,63.0,49.2,35.0,48.3,42.4,35.0,100,80,55,30.16,30.02,6,2,23,0.00
2013-11-4,68.0,61.9,55.0,66.2,53.8,46.6,100,78,55,30.14,16.98,13,4,23,0.00
2013-11-5,76.0,64.5,55.0,76.0,64.1,46.8,100,99,64,17.02,16.97,18,2,18,0.00
2013-11-6,63.0,52.6,39.0,61.0,41.2,-16.3,100,71,4,17.31,17.31,13,4,15,0.00
2013-11-7,60.0,45.6,31.0,46.0,35.3,24.8,100,74,29,17.35,17.31,12,1,12,0.00
2013-11-8,60.0,48.7,43.0,51.7,46.9,43.0,100,95,58,17.33,17.09,15,2,15,0.01
2013-11-9,76.0,54.0,36.0,64.3,49.6,-29.7,100,87,4,17.12,17.07,16,2,16,0.00
2013-11-10,69.0,53.3,42.0,69.0,41.5,-52.1,100,72,8,17.22,17.12,12,1,12,0.00
2013-11-11,74.0,60.4,47.0,71.0,48.2,-1.4,100,74,15,17.24,17.21,12,2,12,0.00
2013-11-12,57.0,43.6,29.0,57.0,36.9,20.8,100,80,41,17.55,17.25,21,5,21,0.00
2013-11-13,56.0,35.5,18.0,29.9,20.0,8.8,100,63,16,17.55,17.24,9,1,9,0.00
2013-11-14,65.0,45.6,27.0,49.4,39.7,27.0,100,82,57,17.23,16.97,18,3,18,0.00
2013-11-15,79.0,58.8,39.0,62.7,53.6,32.8,100,86,50,16.88,16.87,13,3,13,0.00
2013-11-16,81.0,66.7,53.0,71.5,63.8,53.0,100,92,64,16.85,16.80,19,5,19,0.00
2013-11-17,81.0,65.6,51.0,68.1,54.7,44.5,100,73,32,16.99,16.81,26,4,26,0.00
2013-11-18,66.0,56.6,46.0,49.0,45.7,40.0,100,68,47,17.11,17.11,12,3,12,0.00
2013-11-19,79.0,64.0,52.0,68.9,58.8,48.0,100,84,65,17.11,16.97,16,4,16,0.00
2013-11-20,72.0,63.2,57.0,72.0,63.2,57.0,100,100,100,16.95,16.92,14,4,17,0.00
2013-11-21,80.0,65.8,42.0,77.5,64.9,42.0,100,97,50,17.19,16.95,22,3,22,7.00
2013-11-22,42.0,30.0,28.0,42.0,30.0,28.0,100,100,100,17.38,17.20,19,6,19,0.01
2013-11-23,33.0,30.1,28.0,33.0,30.1,27.0,100,100,100,17.42,17.38,17,6,17,0.01
2013-11-24,32.0,30.3,30.0,32.0,30.3,30.0,100,100,100,17.43,17.20,14,4,14,0.06
2013-11-25,38.0,33.7,30.0,38.0,33.7,30.0,100,100,100,17.13,17.13,9,3,12,0.01
2013-11-26,52.0,39.2,32.0,40.9,35.0,32.0,100,87,54,17.33,17.13,25,6,25,0.00
2013-11-27,49.0,35.4,22.0,37.0,31.4,22.0,100,87,52,17.33,17.23,9,1,9,0.00
2013-11-28,60.0,40.4,26.0,40.0,33.7,26.0,100,81,44,17.29,17.29,10,2,11,0.00
2013-11-29,63.0,41.7,23.0,50.6,39.2,23.0,100,92,62,17.30,17.27,15,2,15,0.00
2013-11-30,71.0,52.2,35.0,64.0,43.2,-50.9,100,79,1,17.16,17.16,13,3,13,0.00
2013-12-1,65.0,55.3,45.0,65.0,45.5,-49.0,100,81,1,17.17,16.99,17,4,17,0.00
2013-12-2,75.0,57.0,41.0,57.0,43.0,27.9,100,67,25,16.99,16.72,22,4,22,4.00
2013-12-3,80.0,60.4,41.0,48.1,39.1,34.1,100,53,19,16.70,16.69,18,4,18,0.00
2013-12-4,82.0,63.0,47.0,61.1,52.7,45.0,100,73,39,16.82,16.68,23,3,23,0.00
2013-12-5,52.0,29.2,22.0,44.7,25.3,15.5,100,87,57,17.07,16.84,18,6,18,0.01
2013-12-6,30.0,24.2,20.0,30.0,24.2,20.0,100,100,97,17.27,17.27,14,6,16,0.02
2013-12-7,24.0,20.3,16.0,23.0,19.9,15.8,100,98,91,28.00,17.37,11,5,11,0.00
2013-12-8,53.0,37.6,20.0,48.3,36.4,20.0,100,96,80,27.91,27.75,10,3,14,0.07
2013-12-9,28.0,26.6,25.0,28.0,25.7,23.4,100,97,86,28.16,27.87,11,5,16,0.07
2013-12-10,49.0,34.4,22.0,36.0,29.2,22.0,100,85,46,28.23,27.99,10,3,15,0.01
2013-12-11,49.0,35.0,24.0,37.7,31.1,24.0,100,88,53,28.30,27.98,10,3,15,9.12
2013-12-12,46.0,33.9,21.0,41.0,32.0,21.0,100,94,65,28.31,28.02,7,2,15,9.12
2013-12-13,65.0,48.9,40.0,53.5,46.1,40.0,100,91,59,28.02,27.69,17,5,19,7.98
2013-12-14,54.0,43.2,30.0,43.1,32.3,27.7,100,68,38,28.11,27.70,15,5,20,9.12
2013-12-15,63.0,40.7,24.0,40.4,29.5,24.0,100,72,28,28.17,27.99,12,4,20,9.12
2013-12-16,69.0,44.5,29.0,37.8,33.7,29.0,100,71,29,28.08,27.97,12,3,20,4.56
2013-12-17,71.0,47.6,30.0,44.7,37.6,30.0,100,74,33,28.14,27.97,7,2,12,9.12
2013-12-18,71.0,49.7,27.0,58.7,43.9,27.0,100,85,43,28.05,27.77,14,3,17,9.12
2013-12-19,71.0,59.5,53.0,64.8,57.7,53.0,100,95,69,27.77,27.60,12,5,20,9.12
2013-12-20,59.0,49.5,34.0,59.0,42.6,-44.7,100,85,1,27.72,27.50,12,5,20,0.03
2013-12-21,60.0,48.6,37.0,52.0,26.8,-53.3,100,46,1,27.61,27.38,18,7,30,0.55
2013-12-22,48.0,38.6,26.0,43.0,34.1,26.0,100,86,52,28.07,27.61,14,4,30,30.48
2013-12-23,59.0,36.8,23.0,41.1,32.3,22.0,100,87,49,28.25,28.07,10,2,30,30.48
2013-12-24,61.0,42.1,22.0,44.4,33.0,8.6,100,74,40,28.20,27.95,16,3,19,30.48
2013-12-25,50.0,40.7,28.0,43.4,35.6,28.0,100,83,59,28.17,27.93,12,4,19,30.48
2013-12-26,54.0,36.5,25.0,43.0,30.3,25.0,100,82,43,28.23,28.09,7,2,19,30.48
2013-12-27,52.0,39.8,26.0,47.0,37.0,26.0,100,91,64,28.22,28.07,7,1,19,30.48
2013-12-28,55.0,46.2,38.0,55.0,39.7,0.9,100,83,15,28.07,27.77,12,3,19,30.48
2013-12-29,50.0,38.0,27.0,50.0,38.0,27.0,100,100,98,28.06,27.73,14,6,20,30.48
2013-12-30,54.0,35.3,19.0,34.8,29.2,19.0,100,82,45,28.11,27.96,8,2,20,24.13
2013-12-31,61.0,40.5,22.0,43.1,32.1,22.0,100,77,40,28.17,27.92,12,3,17,0.00
2014-1-1,69.0,49.6,33.0,50.0,39.2,29.9,100,72,34,28.04,27.81,20,7,20,0.00
2014-1-2,50.0,35.0,23.0,32.9,27.6,23.0,100,77,42,28.26,28.04,11,3,13,0.00